Regional Weather Roundup
Issued by NWS Northern Indiana

Home | Current Version | Previous Version | Text Only | Print | Product List | Glossary Off
Versions: 1 2 3 4 5 6 7 8 9 10 11 12 13 14 15 16 17 18 19 20 21 22 23 24 25 26 27 28 29 30 31 32 33 34 35 36 37 38 39 40 41 42 43 44 45 46 47 48 49 50

000
ASUS43 KIWX 282300
RWRIWX

KIWX WEATHER ROUNDUP
NATIONAL WEATHER SERVICE NORTHERN INDIANA
700 PM EDT TUE JUL 28 2015

NOTE: "FAIR" INDICATES FEW OR NO CLOUDS BELOW 12,000 FEET WITH NO
SIGNIFICANT WEATHER AND/OR OBSTRUCTIONS TO VISIBILITY.

* THESE STATIONS ARE NOT UNDER NWS QUALITY CONTROL. THEY ALSO MAY NOT
  REPORT WEATHER SUCH AS PRECIPITATION OR FOG.

INZ001>027-290000-
NORTHERN INDIANA

CITY           SKY/WX    TMP DP  RH WIND       PRES   REMARKS
GARY*          PTSUNNY   90  72  55 SE13      29.90  HX  96
KNOX*          SUNNY     86  70  58 SE7       29.90S
SOUTH BEND     MOSUNNY   88  68  51 SE12      29.91F
ELKHART*       MOSUNNY   88  66  48 E12       29.92F
GOSHEN         MOSUNNY   87  69  54 E9        29.93F
MONTICELLO*    MOSUNNY   88  73  61 CALM      29.90F HX  96
WARSAW*        MOSUNNY   86  70  58 CALM      29.93F
ANGOLA*        SUNNY     88  66  48 SE6       29.96F
FORT WAYNE     PTSUNNY   87  69  54 E7        29.94F
PERU/GRISSOM   MOSUNNY   87  72  61 E7        29.91F

$$
INZ028>050-290000-
CENTRAL INDIANA

CITY           SKY/WX    TMP DP  RH WIND       PRES   REMARKS
LAFAYETTE      MOSUNNY   85  74  69 SE5       29.90F
KOKOMO*        MOSUNNY   86  72  62 E3        29.92F
MUNCIE*        PTSUNNY   86  72  62 E7        29.94F
INDIANAPOLIS   PTSUNNY   87  72  60 SE12      29.91F

$$
MIZ043>046-050>051-056>058-064>065-071>073-077>080-290000-
SOUTHWEST LOWER MICHIGAN

CITY           SKY/WX    TMP DP  RH WIND       PRES   REMARKS
BATTLE CREEK   MOSUNNY   87  64  46 S10       29.96F
BENTON HARBOR  MOSUNNY   86  70  58 E9        29.89F
COLDWATER*     MOSUNNY   83  63  51 SE5       29.96F
HILLSDALE*     PTSUNNY   85  64  48 SE5       29.98F
HOLLAND        MOSUNNY   87  67  51 SE8       29.92F
GRAND RAPIDS   PTSUNNY   85  63  47 SE9       29.93F
KALAMAZOO      MOSUNNY   87  63  44 SE6       29.94F
STURGIS*       MOSUNNY   84  66  54 SE7       29.94F
THREE RIVERS*  FAIR      86  65  50 SE7       29.94F

$$
OHZ001>008-015>018-024>025-290000-
NORTHWEST OHIO

CITY           SKY/WX    TMP DP  RH WIND       PRES   REMARKS
DEFIANCE       MOSUNNY   88  64  44 E7        29.95F
FINDLAY        PTSUNNY   89  60  37 E5        29.95F
TOLEDO EXPRESS PTSUNNY   84  64  50 NE8       29.95F
TOLEDO METCALF PTSUNNY   84  62  47 E6        29.96F
LIMA           PTSUNNY   86  67  52 E3        29.96F

$$
AND FOR LAKE MICHIGAN COASTAL AND OPEN LAKE BUOY OBSERVATIONS

STATION/POSITION TEMP    WIND        PRES    VSBY  WAVE
                 AIR SEA DIR/SP/G                  HT/PER
                 (F)     (DEG/KT/KT) (MB)    (MI)  (FT/S)
CALUMET HARBOR    81      90/ 11/ 17   N/A
MICHIGAN CITY     86      90/ 13/ 17   N/A
BURNS HARBOR      88     110/ 16/ 20 1011.9
SAINT JOSEPH      83     340/  4/  6 1013.5F
4 MI NW BRIDGMAN  79 80  110/  6/  8   N/A           0
MICHIGAN CITY     80 78  100/ 10/ 14   N/A           1

$$
&&


USA.gov is the U.S. government's official web portal to all federal, state and local government web resources and services.